sat.trackr.live / text

‹ back to catalog

IHI-SAT2

NORAD 66772 · 2025-276DL

PAYLOAD ACTIVE UNKNOWN

§ Identity

Operator
Country
JPN
Launch date
2025-11-28
Launch site
AFWTR
Launch vehicle
Mass (kg)
RCS (m²)

External: N2YO · Heavens-Above · Gunter

§ Orbital elements

Epoch: 2026-09-20T22:34:49.188576Z

Period
94.58 min
Inclination
97.4156°
Eccentricity
0.0000886
Mean motion
15.22448140 rev/d
Perigee alt
497.8 km
Apogee alt
499.1 km
Semi-major
6,876.6 km
B*
1.7695e-4
RAAN
336.7055°
Arg perigee
155.8960°
Mean anomaly
204.2318°
Rev number
4,501

§ Raw data

IHI-SAT21 66772U 25276DL  26263.94084709  .00004023  00000+0  17695-3 0  99992 66772  97.4156 336.7055 0000886 155.8960 204.2318 15.22448140 45018

JSON: /api/v1/satellites/66772 · /tle

For live sub-satellite position, see the globe view (requires WebGL).

§ Visibility from observer

Set your observer location to see the next 7 days of passes ≥ 10°. The values pass through the URL so the page stays shareable.

No JS? Fill the form by hand. The geolocation button needs JavaScript.

§ Radio — SatNOGS DB

ModeDescriptionDownlinkUplink
FM Mode S - Transmitter 2.283 GHz
FM Mode U - Transmitter 401.050 MHz
FM Mode X - Transmitter 8.200 GHz

3 transmitters · refreshed weekly from db.satnogs.org